Flag for Germany Weather past 2 weeks in Krefeld, North Rhine-Westphalia, Germany

Now
57 °F

Sunny.


Feels Like: 57 °F
Forecast: 51 / 65 °F
Wind: 3 mph from North

Location: Monchengladbach Airport

Current Time: Aug 21, 2014 at 10:44:23 AM

Latest Report: Aug 21, 2014 at 9:50 AM


Visibility: 10 mi

Pressure: 30.04 "Hg

Humidity: 77%

Dew point: 50 °F

Location of KrefeldLocation

Historic Weather in Krefeld — Graph

°F

Krefeld temperature yesterday

Maximum temperature yesterday: 66 °F (at 3:50 PM)
Minimum temperature yesterday: 50 °F (at 7:50 AM)
Average temperature yesterday: 60 °F

Past Weeks' High & Low Weather Summary

 TemperatureHumidityPressure
High77 °F (Aug 6, 1:20 PM)100% (Aug 8, 4:02 PM)30.09 "Hg (Aug 8, 4:02 PM)
Low48 °F (Aug 21, 7:50 AM)42% (Aug 6, 1:50 PM)29.56 "Hg (Aug 10, 6:20 PM)
Average65 °F73%29.86 "Hg
* Reported Aug 6 9:20 AM — Aug 21 9:50 AM, Krefeld, Weather by CustomWeather, © 2014

Note: Actual official high and low records may vary slightly from our data, if they occured in-between our weather recording intervals... More about our weather records

Advertising

Krefeld weather history for previous 24 hours

 ConditionsComfort  
Time TempWeatherWind HumidityBarometerVisibility
9:50 AM
Aug 21
57 °FSunny.3 mph77%30.04 "Hg10 mi
9:20 AM55 °FPassing clouds.5 mph82%30.04 "HgN/A
8:50 AM54 °FSunny.3 mph88%30.04 "Hg10 mi
8:20 AM50 °FSunny.3 mph94%30.04 "Hg10 mi
7:50 AM48 °FSunny.3 mph100%30.04 "Hg10 mi
8:20 PM
Aug 20
54 °FClear.1 mph94%30.01 "Hg10 mi
7:50 PM54 °FScattered showers. Passing clouds.2 mph88%30.01 "HgN/A
7:20 PM54 °FScattered showers. Passing clouds.6 mph88%30.01 "HgN/A
6:50 PM54 °FSprinkles. Passing clouds.9 mph88%30.01 "HgN/A
6:20 PM59 °FSprinkles. Passing clouds.12 mph68%29.98 "HgN/A
5:50 PM64 °FClear.3 mph52%29.98 "Hg10 mi
5:20 PM64 °FClear.7 mph52%29.98 "Hg10 mi
4:50 PM66 °FClear.6 mph49%29.98 "Hg10 mi
4:20 PM66 °FClear.6 mph46%29.98 "Hg10 mi
3:50 PM66 °FClear.6 mph46%29.98 "Hg10 mi
3:20 PM64 °FPassing clouds.6 mph49%29.98 "HgN/A
2:50 PM64 °FPassing clouds.5 mph52%30.01 "HgN/A
2:20 PM64 °FPassing clouds.8 mph49%30.01 "HgN/A
1:50 PM63 °FPassing clouds.7 mph49%30.01 "HgN/A
1:20 PM63 °FPassing clouds.6 mph52%30.01 "HgN/A
12:50 PM63 °FScattered clouds.6 mph52%30.01 "HgN/A
12:20 PM63 °FScattered clouds.6 mph56%30.01 "HgN/A
11:50 AM63 °FPassing clouds.5 mph59%30.01 "HgN/A
11:20 AM61 °FSunny.5 mph63%30.01 "Hg10 mi
10:50 AM61 °FSunny.5 mph63%30.01 "Hg10 mi
10:20 AM59 °FPassing clouds.5 mph68%30.01 "HgN/A
Weather by CustomWeather, © 2014

See weather overviewHow to use our weather pages